Regional Weather Roundup
Issued by NWS

Home | Current Version | Previous Version | Graphics & Text | Print | Product List | Glossary On
Versions: 1 2 3 4 5 6 7 8 9 10 11 12 13 14 15 16 17 18 19 20 21 22 23 24 25 26 27 28 29 30 31 32 33 34 35 36 37 38 39 40 41 42 43 44 45 46 47 48 49 50
731
ASUS43 KMPX 221301
RWRMN
WEATHER ROUNDUP FOR MINNESOTA
NATIONAL WEATHER SERVICE TWIN CITIES/CHANHASSEN MN
700 AM CST MON JAN 22 2018


NOTE: "FAIR" INDICATES FEW OR NO CLOUDS BELOW 12,000 FEET WITH NO
SIGNIFICANT WEATHER AND/OR OBSTRUCTIONS TO VISIBILITY. N/A MEANS
CURRENT SKY AND/OR WEATHER CONDITIONS ARE NOT AVAILABLE.

MNZ060>063-068>070-221400-
   Twin Cities Metro

CITY           SKY/WX    TMP DP  RH WIND       PRES   REMARKS
TWIN CITIES    CLOUDY    32  30  92 NE17      29.81F WCI  21
ST PAUL        CLOUDY    33  28  81 NE14      29.83S WCI  23
CRYSTAL        CLOUDY    31  24  75 N14       29.82F WCI  21
BLAINE         CLOUDY    32  28  86 N17G24    29.82F WCI  21
LAKEVILLE      FLURRIES  32  30  93 NE17G23   29.76F WCI  21
EDEN PRAIRIE   CLOUDY    32  28  85 N18G25    29.77F WCI  20
SOUTH ST PAUL  CLOUDY    33  29  85 N10G20    29.80S WCI  25
LAKE ELMO      CLOUDY    32  30  93 NE9G16    29.82S WCI  24
$$
MNZ001>005-007-008-013>017-022>024-027-028-221400-
   Northwest Minnesota

CITY           SKY/WX    TMP DP  RH WIND       PRES   REMARKS
BEMIDJI        CLOUDY    25  24  98 NE7       30.01R WCI  17
HALLOCK        CLOUDY    25  21  86 NE3       30.11F
ROSEAU         CLOUDY    25  19  80 NE10      30.09F HAZE    WCI  15
WARROAD        CLOUDY    21  18  86 N9        30.09F FOG     WCI  11
CROOKSTON      CLOUDY    25  21  86 NE8       30.08R WCI  16
FOSSTON        CLOUDY    21  21 100 NE9       30.03R WCI  11
DETROIT LAKES  CLOUDY    27  27 100 NE12      29.98F WCI  16
MOORHEAD       CLOUDY    25  21  86 NE12      30.03R WCI  14
PARK RAPIDS    CLOUDY    26  22  84 NE10      29.96S WCI  16
MAHNOMEN       CLOUDY    25  23  91 NE13G18   30.00R WCI  14
$$
MNZ006-009>011-018-025>026-221400-
   North Central Minnesota

CITY           SKY/WX    TMP DP  RH WIND       PRES   REMARKS
BAUDETTE       CLOUDY    22  21  96 NE6       30.06F WCI  14
FLAG ISLAND    CLOUDY    19  18  93 NE5       30.11F WCI  13
INTL FALLS     CLOUDY    20  16  84 E5        30.08S WCI  13
WASKISH        CLOUDY    23  21  93 NE3       30.05R
BIG FORK       CLOUDY    25  23  93 NE6       30.02R WCI  18
LONGVILLE      CLOUDY    27  23  86 NE5       29.98S WCI  21
GRAND RAPIDS   CLOUDY    26  22  84 NE3       30.01S
CRANE LAKE     CLOUDY    18  16  93 NE3       30.10S
ORR            CLOUDY    19  18  93 CALM      30.02F
COOK           CLOUDY    21  19  93 NE5       30.03S WCI  15
WALKER         CLOUDY    25  24  96 E7        29.99F WCI  17
$$
MNZ012-019>021-037-221400-
   Northeast Minnesota

CITY           SKY/WX    TMP DP  RH WIND       PRES   REMARKS
DULUTH         LGT SNOW  24  23  96 E17       29.97S VSB 3/4 WCI  11
HIBBING        CLOUDY    24  22  91 NE7       30.00S WCI  16
EVELETH        CLOUDY    23  20  88 E5        30.01S WCI  17
DULUTH HARBOR  MIX PCPN  28  27  93 NE30      30.02R WCI  13
TWO HARBORS    CLOUDY    27  21  80 NE12G18   30.00R WCI  16
SILVER BAY     CLOUDY    21  21 100 NE8       30.02F WCI  12
GRAND MARAIS     N/A     22  15  75 NE8       30.09F WCI  12
G MARAIS ARPRT CLOUDY    14  10  85 N5        30.01F WCI   6
$$
MNZ029>031-032-039>041-046>048-054>057-064-221400-
   West Central Minnesota

CITY           SKY/WX    TMP DP  RH WIND       PRES   REMARKS
FERGUS FALLS   CLOUDY    25  25 100 E9        29.97F WCI  15
WHEATON        CLOUDY    25  23  93 N13       29.98S WCI  13
MORRIS         CLOUDY    27  25  93 N20       29.90F FOG     WCI  13
ALEXANDRIA     CLOUDY    27  25  92 NE17      29.90F WCI  14
ELBOW LAKE     CLOUDY    25  24  97 NE10      29.95S FOG     WCI  14
WADENA         CLOUDY    25  25 100 NE9G18    29.95R WCI  15
GLENWOOD       CLOUDY    27  27 100 N16       29.88F WCI  14
APPLETON       CLOUDY    28  25  86 N16       29.89F WCI  17
BENSON         CLOUDY    28  27  93 NE14      29.89F WCI  17
ORTONVILLE     CLOUDY    25  21  86 N20G25    29.92S FOG     WCI  11
MADISON        CLOUDY    28  28 100 N20G25    29.88S WCI  15
WILLMAR        CLOUDY    28  27  93 NE22G29   29.86S WCI  15
$$
MNZ033>034-036-042>043-049>051-058-059-221400-
   Central Minnesota

CITY           SKY/WX    TMP DP  RH WIND       PRES   REMARKS
ST CLOUD       CLOUDY    29  27  92 NE12G20   29.88S WCI  19
SAUK CENTRE      N/A     28  25  88 N20G25    29.89S WCI  15
PAYNESVILLE    CLOUDY    29  28  95 NE14G21   29.87R WCI  18
AITKIN         CLOUDY    25  21  86 NE9G17    29.94F WCI  15
PINE RIVER     CLOUDY    25  21  86 NE7       30.00S WCI  17
BRAINERD       CLOUDY    28  23  81 NE14      29.94F WCI  17
STAPLES        CLOUDY    27  25  93 NE10      29.94S WCI  17
LONG PRAIRIE   CLOUDY    28  27  93 N14G24    29.90F WCI  17
LITTLE FALLS   CLOUDY    28  21  74 N5        29.92R WCI  23
LITCHFIELD     CLOUDY    30  30 100 NE18      29.84S WCI  18
BUFFALO        CLOUDY    30  26  84 N14G20    29.84F WCI  20
MAPLE LAKE     CLOUDY    31  28  89 MISG      29.85F
HUTCHINSON     CLOUDY    31  29  92 N18G24    29.81F WCI  19
$$
MNZ037-044-045-052-053-221400-
   East Central Minnesota

CITY           SKY/WX    TMP DP  RH WIND       PRES   REMARKS
PRINCETON      CLOUDY    30  27  86 N16       29.88S WCI  19
MORA           CLOUDY    30  25  80 NE5       29.92F WCI  25
CAMBRIDGE      CLOUDY    32  23  69 NE10G23   29.88S WCI  24
RUSH CITY      CLOUDY    29  25  84 NE15G23   29.89S WCI  18
MOOSE LAKE     CLOUDY    28  25  86 NE10G16   29.94S WCI  19
HINCKLEY       CLOUDY    30  27  86 NE12G22   29.92S WCI  21
CLOQUET        LGT SNOW  25  21  86 NE17      29.96S WCI  11
MCGREGOR       CLOUDY    28  25  86 NE8       29.97F WCI  20
$$
MNZ071>073-080-081-089-090-097-098-221400-
   Southwest Minnesota

CITY           SKY/WX    TMP DP  RH WIND       PRES   REMARKS
MONTEVIDEO     CLOUDY    27  27 100 NE16G22   29.86F WCI  14
GRANITE FALLS  CLOUDY    30  28  92 N14       29.86S WCI  19
CANBY          CLOUDY    27  26  97 N20G25    29.87R FOG     WCI  13
MARSHALL       CLOUDY    27  25  92 N22G28    29.81F FOG     WCI  13
REDWOOD FALLS  CLOUDY    30  28  92 N16G23    29.79F WCI  19
OLIVIA         CLOUDY    30  28  93 NE14G23   29.80F WCI  20
PIPESTONE      CLOUDY    25  21  86 NE30G38   29.72S WCI   8
WINDOM         SNOW      30  18  59 N26G36    29.67F VSB 1/2 WCI  16
WORTHINGTON    LGT SNOW  28  27  96 N26G33    29.63F FOG     WCI  13
JACKSON        CLOUDY    32  30  93 N31G38    29.63F VSB 1/2 WCI  17
TRACY          LGT SNOW  28  28  99 N22G30    29.76F WCI  14
SLAYTON        CLOUDY    26  25  95 N25G33    29.71F WCI  11
$$
MNZ065>067-074>077-082>085-091>093-221400-
   South Central Minnesota

CITY           SKY/WX    TMP DP  RH WIND       PRES   REMARKS
MANKATO        LGT SNOW  32  30  92 NE25G31   29.70F FOG     WCI  19
NEW ULM        LGT SNOW  30  28  93 N20G25    29.73F WCI  18
ST JAMES       LGT SNOW N/A N/A N/A N22G29    29.70F VSB 3/4
FAIRMONT       LGT SNOW  32  31  96 N24G32    29.62F FOG     WCI  19
FARIBAULT      LGT SNOW  34  30  86 N14G21    29.73F WCI  24
OWATONNA       LGT SNOW  34  30  86 N18       29.68F WCI  23
WASECA         LGT SNOW  32  30  93 NE31      29.66F VSB 1   WCI  17
ALBERT LEA     MIX PCPN  34  32  93 NE24G33   29.60F WCI  21
$$
MNZ078>079-086>088-094>096-221400-
   Southeast Minnesota

CITY           SKY/WX    TMP DP  RH WIND       PRES   REMARKS
ROCHESTER      LGT SNOW  32  32 100 N23G30    29.65F VSB 3/4 WCI  19
RED WING       CLOUDY    36  27  69 NE10G17   29.77R
STANTON        FLURRIES  34  31  88 NE18G26   29.73F WCI  23
DODGE CENTER   LGT SNOW  32  30  93 N21G26    29.66F VSB 1   WCI  20
WINONA         LGT RAIN  36  34  93 NE8       29.69F
AUSTIN         LGT SNOW  34  30  86 NE17G28   29.60F WCI  23
PRESTON        LGT RAIN  33  32  95 NE17G24   29.62F WCI  22
$$
ABBREVIATIONS USED IN REMARKS
   TC - TEMPERATURES IN CELSIUS
  WCI - WIND CHILL INDEX
   HX - HEAT INDEX
  VSB - VISIBILITY
$$




USA.gov is the U.S. government's official web portal to all federal, state and local government web resources and services.